Weather History for LKTB - December, 2012

Change the Weather History Date:

Sunday, December 2, 2012

  Actual Average Record
Temperature  
Mean Temperature 30 °F -  
Max Temperature 33 °F 35 °F - ()
Min Temperature 26 °F 27 °F - ()
Degree Days  
Heating Degree Days 36    
Moisture  
Dew Point 27 °F    
Average Humidity 84    
Maximum Humidity 93    
Minimum Humidity 72    
Precipitation  
Precipitation 0.00 in 0.04 in - ()
Sea Level Pressure  
Sea Level Pressure 29.87 in    
Wind  
Wind Speed 3 mph ()    
Max Wind Speed 10 mph    
Max Gust Speed -    
Visibility 4.8 miles    
Events Rain , Snow    
T = Trace of Precipitation, MM = Missing Value Source: Averaged Metar Reports

Daily Weather History Graph

Daily Weather History Graph

Search for Another Location

Airport or City:

Trip Planner

Search our weather history database for the weather conditions in past years. The results will help you decide how hot, cold, wet, or windy it might be!

Date:

Astronomy

Dec. 02, 2012 Rise Set
Actual Time 7:28 AM CET 3:57 PM CET
Civil Twilight 6:51 AM CET 4:33 PM CET
Nautical Twilight 6:11 AM CET 5:13 PM CET
Astronomical Twilight 5:33 AM CET 5:52 PM CET
Moon 7:35 PM CET 10:00 AM CET
Length of Visible Light 9h 42m
Length of Day
8h 29m
Waning Gibbous, 87% of the Moon is Illuminated
Dec 2
Waning Gibbous
Dec 6
Last Quarter
Dec 13
New
Dec 20
First Quarter
Dec 28
Full

Hourly Weather History & Observations

Time (CET) Temp. Windchill Dew Point Humidity Pressure Visibility Wind Dir Wind Speed Gust Speed Precip Events Conditions
12:00 AM 26.6 °F 22.6 °F 23.0 °F 86% 29.95 in - North 3.5 mph - N/A   Clear
12:30 AM 26.6 °F - 23.0 °F 86% 29.95 in - Variable 2.3 mph - N/A   Clear
1:00 AM 27 °F - 23 °F 78% 29.99 in 19 mi NNW 2.2 mph - -   Mostly Cloudy
1:00 AM 26.6 °F - 23.0 °F 86% 29.92 in - NNW 2.3 mph - N/A   Clear
1:30 AM 28.4 °F - 24.8 °F 86% 29.92 in - Variable 1.2 mph - N/A   Clear
2:00 AM 26.6 °F - 24.8 °F 93% 29.92 in - Variable 1.2 mph - N/A   Clear
2:30 AM 28.4 °F - 24.8 °F 86% 29.92 in - Variable 2.3 mph - N/A   Clear
3:00 AM 28.4 °F - 24.8 °F 86% 29.92 in - Variable 2.3 mph - N/A   Clear
3:30 AM 28.4 °F - 24.8 °F 86% 29.89 in - Variable 1.2 mph - N/A   Clear
4:00 AM 28.4 °F 24.6 °F 24.8 °F 86% 29.89 in - NE 3.5 mph - N/A   Clear
4:30 AM 28.4 °F 23.3 °F 24.8 °F 86% 29.89 in 6.2 mi NE 4.6 mph - N/A   Scattered Clouds
5:00 AM 30.2 °F 24.3 °F 24.8 °F 80% 29.89 in 6.2 mi NE 5.8 mph - N/A   Overcast
5:30 AM 30.2 °F 25.4 °F 24.8 °F 80% 29.89 in 6.2 mi NNE 4.6 mph - N/A   Mostly Cloudy
6:00 AM 30.2 °F - 24.8 °F 80% 29.89 in 6.2 mi NE 2.3 mph - N/A   Overcast
6:30 AM 30.2 °F - 26.6 °F 86% 29.89 in 6.2 mi Variable 2.3 mph - N/A   Overcast
7:00 AM 30 °F - 25 °F 73% 29.94 in 12 mi ENE 6.7 mph - -   Overcast
7:00 AM 30.2 °F 25.4 °F 24.8 °F 80% 29.89 in 6.2 mi East 4.6 mph - N/A   Scattered Clouds
7:26 AM 30.2 °F 24.3 °F 26.6 °F 86% 29.89 in 4.3 mi ENE 5.8 mph - N/A Snow Light Snow
7:30 AM 30.2 °F 24.3 °F 26.6 °F 86% 29.89 in 4.3 mi ENE 5.8 mph - N/A Snow Light Snow
8:00 AM 30.2 °F 25.4 °F 26.6 °F 86% 29.89 in - ENE 4.6 mph - N/A Snow Light Snow
8:30 AM 30.2 °F 24.3 °F 26.6 °F 86% 29.89 in 4.3 mi ENE 5.8 mph - N/A Snow Light Snow
9:00 AM 30.2 °F 25.4 °F 26.6 °F 86% 29.89 in 3.7 mi ENE 4.6 mph - N/A Snow Light Snow
9:30 AM 30.2 °F 25.4 °F 26.6 °F 86% 29.89 in 3.7 mi ENE 4.6 mph - N/A Snow Light Snow
9:45 AM 30.2 °F - 26.6 °F 86% 29.89 in 3.1 mi NE 2.3 mph - N/A Snow Light Snow
9:49 AM 30.2 °F - 26.6 °F 86% 29.89 in 2.2 mi Variable 2.3 mph - N/A Snow Light Snow
10:00 AM 30.2 °F - 26.6 °F 86% 29.89 in 1.7 mi Variable 1.2 mph - N/A Snow Light Snow
10:17 AM 32.0 °F - 28.4 °F 87% 29.89 in 2.8 mi Variable 2.3 mph - N/A Snow Light Snow
10:21 AM 32.0 °F - 28.4 °F 87% 29.89 in 2.5 mi Variable 2.3 mph - N/A Snow Light Snow
10:30 AM 32.0 °F - 28.4 °F 87% 29.89 in - Variable 2.3 mph - N/A Snow Light Snow
11:00 AM 32.0 °F 27.5 °F 28.4 °F 87% 29.86 in 3.1 mi SSW 4.6 mph - N/A Snow Light Snow
11:30 AM 32.0 °F 27.5 °F 28.4 °F 87% 29.86 in - SSW 4.6 mph - N/A   Mostly Cloudy
12:00 PM 32.0 °F 28.7 °F 28.4 °F 87% 29.86 in 3.1 mi South 3.5 mph - N/A   Mostly Cloudy
12:30 PM 33.8 °F 29.6 °F 28.4 °F 81% 29.86 in 3.7 mi South 4.6 mph - N/A   Overcast
1:00 PM 33 °F - 28 °F 74% 29.89 in 3 mi SSW 4.5 mph - -   Mist
1:00 PM 33.8 °F 29.6 °F 28.4 °F 81% 29.83 in 3.1 mi SSW 4.6 mph - N/A   Mostly Cloudy
1:30 PM 33.8 °F 29.6 °F 28.4 °F 81% 29.83 in 3.1 mi SSW 4.6 mph - N/A   Overcast
2:00 PM 33.8 °F 28.6 °F 28.4 °F 81% 29.83 in 4.3 mi SW 5.8 mph - N/A   Overcast
2:30 PM 33.8 °F 28.6 °F 28.4 °F 81% 29.83 in 4.3 mi SW 5.8 mph - N/A   Overcast
3:00 PM 33.8 °F 30.8 °F 28.4 °F 81% 29.83 in 3.7 mi SW 3.5 mph - N/A   Overcast
3:30 PM 33.8 °F - 28.4 °F 81% 29.83 in 3.7 mi SSW 2.3 mph - N/A   Overcast
4:00 PM 32.0 °F - 28.4 °F 87% 29.83 in 4.3 mi West 2.3 mph - N/A   Overcast
4:30 PM 32.0 °F 28.7 °F 28.4 °F 87% 29.83 in 3.7 mi SW 3.5 mph - N/A   Mostly Cloudy
5:00 PM 32.0 °F - 28.4 °F 87% 29.83 in 4.3 mi WSW 2.3 mph - N/A   Overcast
5:30 PM 32.0 °F - 28.4 °F 87% 29.83 in 4.3 mi Variable 1.2 mph - N/A   Scattered Clouds
6:00 PM 32.0 °F - 28.4 °F 87% 29.83 in 4.3 mi Variable 1.2 mph - N/A   Unknown
6:30 PM 32.0 °F - 28.4 °F 87% 29.80 in 4.3 mi WSW 2.3 mph - N/A   Unknown
7:00 PM 33 °F - 27 °F 72% 29.87 in 4 mi NW 4.5 mph - -   Mist
7:00 PM 32.0 °F 28.7 °F 28.4 °F 87% 29.80 in 4.3 mi WNW 3.5 mph - N/A   Unknown
7:30 PM 32.0 °F 28.7 °F 28.4 °F 87% 29.83 in 6.2 mi WNW 3.5 mph - N/A   Overcast
8:00 PM 32.0 °F 25.6 °F 28.4 °F 87% 29.83 in - WNW 6.9 mph - N/A   Clear
8:30 PM 33.8 °F 29.6 °F 26.6 °F 75% 29.83 in 5.0 mi WNW 4.6 mph - N/A   Overcast
8:34 PM 32.0 °F 26.4 °F 28.4 °F 87% 29.83 in 5.0 mi WNW 5.8 mph - N/A Rain Light Rain
9:00 PM 32.0 °F 23.6 °F 26.6 °F 80% 29.83 in 5.0 mi WNW 10.4 mph - N/A Rain Light Rain
9:30 PM 32.0 °F 26.4 °F 26.6 °F 80% 29.83 in - WNW 5.8 mph - N/A   Clear
10:00 PM 32.0 °F 26.4 °F 26.6 °F 80% 29.83 in - West 5.8 mph - N/A   Clear
10:30 PM 30.2 °F 25.4 °F 26.6 °F 86% 29.83 in - West 4.6 mph - N/A   Clear
11:00 PM 28.4 °F 23.3 °F 24.8 °F 86% 29.83 in 6.2 mi West 4.6 mph - N/A   Partly Cloudy
11:30 PM 30.2 °F - 26.6 °F 86% 29.83 in 6.2 mi Variable 2.3 mph - N/A   Mostly Cloudy